Date,TemperatureHighF,TemperatureAvgF,TemperatureLowF,DewpointHighF,DewpointAvgF,DewpointLowF,HumidityHigh,HumidityAvg,HumidityLow,PressureMaxIn,PressureMinIn,WindSpeedMaxMPH,WindSpeedAvgMPH,GustSpeedMaxMPH,PrecipitationSumIn
2014-1-1,45,42,39,44,41,38,99,97,96,30.41,30.24,10,2,13,0.03
2014-1-2,46,43,41,44,42,38,98,95,79,30.24,29.83,37,12,50,0.88
2014-1-3,44,41,32,39,36,30,94,81,71,30.36,29.94,34,15,44,0.00
2014-1-4,44,35,30,39,32,28,98,88,66,30.48,30.36,20,7,23,0.00
2014-1-5,43,35,30,35,30,27,91,85,71,30.52,30.35,14,5,18,0.00
2014-1-6,41,36,32,34,31,27,89,81,72,30.34,30.09,19,6,22,0.00
2014-1-7,43,39,36,41,37,32,96,93,83,30.11,29.95,19,10,23,0.27
2014-1-8,48,45,41,46,43,40,98,92,82,29.98,29.58,40,19,50,0.14
2014-1-9,47,44,42,43,40,37,94,86,79,29.92,29.64,32,19,43,0.04
2014-1-10,49,46,44,46,43,41,95,88,80,30.01,29.38,41,19,50,0.25
2014-1-11,50,46,44,48,43,40,94,88,78,29.71,29.17,45,24,56,0.51
2014-1-12,48,44,41,46,41,37,97,90,79,30.19,29.71,25,15,34,0.21
2014-1-13,51,49,46,47,45,44,94,88,83,30.56,30.18,34,14,43,0.00
2014-1-14,49,47,46,46,45,44,93,92,90,30.64,30.55,18,8,23,0.00
2014-1-15,48,44,38,46,42,36,97,94,91,30.60,30.52,15,5,21,0.00
2014-1-16,45,40,34,44,39,33,98,96,93,30.52,30.37,18,6,22,0.01
2014-1-17,44,40,38,43,39,37,98,97,94,30.37,30.16,15,6,17,0.00
2014-1-18,44,39,36,42,38,35,98,95,89,30.24,30.16,17,6,20,0.00
2014-1-19,46,40,37,43,38,35,100,93,82,30.33,30.17,12,5,16,0.00
2014-1-20,46,38,32,41,36,31,97,92,82,30.35,30.28,16,5,20,0.00
2014-1-21,44,39,32,40,36,31,96,89,77,30.31,30.20,20,5,23,0.00
2014-1-22,47,41,38,42,39,36,98,92,81,30.45,30.31,16,5,20,0.00
2014-1-23,45,39,33,43,38,31,97,95,88,30.48,30.40,15,6,18,0.01
2014-1-24,42,40,38,41,39,37,98,98,96,30.44,30.30,14,6,17,0.00
2014-1-25,47,38,33,46,37,33,99,95,87,30.37,30.27,12,4,16,0.01
2014-1-26,39,38,35,39,37,34,100,98,96,30.27,30.10,12,5,15,0.01
2014-1-27,41,37,32,41,36,31,99,98,97,30.21,30.11,11,3,14,0.00
2014-1-28,46,42,38,42,39,37,97,91,86,30.21,29.91,20,6,26,0.02
2014-1-29,44,43,41,43,41,39,98,95,89,29.90,29.65,22,8,25,0.51
2014-1-30,44,40,36,42,37,28,97,90,71,29.93,29.75,27,11,35,0.20
2014-1-31,45,36,30,32,26,23,80,67,48,30.16,29.93,28,12,39,0.00
2014-2-1,38,33,29,31,27,23,81,78,74,30.18,30.08,16,8,22,0.00
2014-2-2,41,35,31,28,25,16,81,67,52,30.08,29.97,25,10,33,0.00
2014-2-3,39,32,27,17,14,9,55,47,36,30.24,30.04,30,18,50,0.00
2014-2-4,32,26,23,12,8,5,48,45,40,30.46,30.24,42,27,55,0.00
2014-2-5,31,24,21,6,4,1,48,42,32,30.51,30.34,37,22,50,0.00
2014-2-6,31,25,20,9,3,-1,47,38,29,30.34,29.79,33,18,45,0.00
2014-2-7,37,29,24,22,14,8,84,54,34,29.95,29.79,26,10,34,0.00
2014-2-8,38,31,25,12,10,8,49,41,32,30.06,29.85,38,21,52,0.00
2014-2-9,36,32,30,27,18,12,84,55,42,30.09,29.93,20,10,26,0.00
2014-2-10,46,39,31,43,36,24,96,89,71,30.05,29.91,30,14,40,0.51
2014-2-11,47,44,38,43,40,35,93,86,78,30.10,29.44,40,14,46,0.23
2014-2-12,51,46,44,45,41,38,93,83,66,29.83,29.30,41,14,60,0.08
2014-2-13,52,46,42,43,40,36,92,79,66,30.02,29.65,36,16,44,0.04
2014-2-14,52,46,42,45,40,35,91,82,71,29.92,29.50,37,16,47,0.13
2014-2-15,48,42,39,45,38,33,96,87,66,29.92,29.11,49,18,60,0.27
2014-2-16,44,42,38,39,36,33,93,82,66,29.87,29.51,44,26,55,0.70
2014-2-17,46,42,40,42,39,37,96,90,81,29.87,29.64,26,15,34,0.20
2014-2-18,47,43,40,44,39,34,95,86,76,29.90,29.45,41,25,54,0.46
2014-2-19,47,42,39,38,35,32,90,79,67,30.07,29.76,32,17,40,0.02
2014-2-20,49,44,40,40,38,34,93,79,64,30.15,29.91,37,22,43,0.05
2014-2-21,43,39,32,37,32,27,86,74,58,30.27,30.15,25,13,30,0.00
2014-2-22,36,34,32,35,32,30,100,92,83,30.22,30.03,19,9,23,0.50
2014-2-23,33,31,29,32,30,26,96,96,89,30.07,29.96,36,23,45,0.12
2014-2-24,35,32,29,31,29,25,94,89,81,30.13,30.05,37,15,50,0.85
2014-2-25,44,38,35,37,31,25,91,75,48,30.16,30.00,28,13,44,1.13
2014-2-26,46,41,38,41,34,27,93,77,53,30.00,29.72,42,12,50,0.03
2014-2-27,45,42,39,43,39,34,95,90,78,29.74,29.65,19,6,23,0.00
2014-2-28,56,46,40,40,30,17,88,57,30,29.74,29.53,56,23,66,0.00
2014-3-1,40,34,29,28,21,16,92,62,39,29.69,29.56,43,28,58,0.00
2014-3-2,37,33,31,36,31,28,97,94,84,29.70,29.51,26,12,33,0.72
2014-3-3,47,44,37,46,43,36,98,95,86,29.87,29.60,35,14,36,0.33
2014-3-4,42,40,38,40,38,36,96,94,90,29.94,29.82,19,3,22,0.48
2014-3-5,59,46,38,54,44,38,99,94,81,29.82,29.35,33,12,38,0.77
2014-3-6,52,50,48,50,47,45,96,89,81,29.99,29.36,35,20,44,0.30
2014-3-7,57,50,46,48,46,43,94,85,72,30.25,30.00,22,10,30,0.00
2014-3-8,51,48,45,50,45,41,96,90,80,30.09,29.66,34,12,44,0.64
2014-3-9,56,51,46,51,47,43,97,88,76,30.00,29.75,23,6,27,0.11
2014-3-10,52,47,44,46,43,40,96,86,67,30.41,29.93,17,5,22,0.00
2014-3-11,53,46,38,47,42,36,95,86,73,30.57,30.41,15,6,18,0.00
2014-3-12,53,44,37,47,40,35,96,89,74,30.44,30.16,18,5,22,0.00
2014-3-13,51,46,44,46,43,41,93,89,81,30.17,29.94,18,5,25,0.03
2014-3-14,55,50,46,48,45,40,96,85,72,30.30,29.82,33,14,37,0.29
2014-3-15,54,49,44,50,44,40,96,84,64,30.32,30.06,29,11,38,0.58
2014-3-16,50,46,42,48,43,39,95,91,83,30.17,29.94,31,12,39,0.34
2014-3-17,51,44,40,39,36,32,87,73,52,30.30,29.95,46,19,53,0.00
2014-3-18,51,45,40,43,40,36,92,83,68,30.31,30.14,19,7,23,0.05
2014-3-19,49,46,43,45,42,36,97,89,76,30.14,29.96,22,12,30,0.44
2014-3-20,50,44,36,40,36,32,90,73,52,30.34,30.14,21,8,24,0.00
2014-3-21,48,41,34,42,37,32,95,85,72,30.35,30.30,16,5,22,0.00
2014-3-22,47,39,32,41,36,31,97,88,71,30.31,30.24,21,6,27,0.07
2014-3-23,50,42,38,43,38,36,95,86,67,30.35,30.26,11,4,14,0.02
2014-3-24,61,48,42,46,40,36,90,77,45,30.26,29.84,27,10,37,0.00
2014-3-25,54,50,46,48,45,42,90,81,73,29.85,29.42,32,18,45,0.12
2014-3-26,54,49,45,46,44,42,94,82,68,29.57,29.50,31,10,36,0.22
2014-3-27,54,48,45,49,45,44,96,89,77,29.83,29.53,21,6,26,0.13
2014-3-28,54,49,45,48,45,42,93,86,77,29.83,29.59,37,16,38,0.35
2014-3-29,52,49,47,47,45,44,92,86,80,29.75,29.62,31,18,40,0.08
2014-3-30,56,47,42,48,43,39,93,84,63,29.98,29.75,19,9,27,0.05
2014-3-31,57,47,40,47,42,37,94,84,55,29.98,29.73,25,13,32,0.00
2014-4-1,56,48,43,48,41,34,89,75,59,29.84,29.73,17,7,21,0.00
2014-4-2,55,49,45,48,44,41,92,82,70,29.98,29.84,19,8,21,0.00
2014-4-3,53,49,44,45,42,38,89,79,67,29.96,29.80,35,16,45,0.00
2014-4-4,56,50,46,47,44,40,92,79,56,29.93,29.84,20,10,24,0.00
2014-4-5,51,49,47,49,46,43,94,89,83,30.03,29.91,20,10,27,0.12
2014-4-6,55,50,46,48,45,43,96,83,68,30.26,30.03,16,6,20,0.00
2014-4-7,62,53,46,54,49,45,96,88,69,30.26,30.05,15,6,18,0.03
2014-4-8,54,51,46,52,48,41,97,90,70,30.13,29.98,20,9,25,0.15
2014-4-9,57,49,42,45,42,39,93,77,55,30.25,30.11,18,7,21,0.01
2014-4-10,56,49,44,48,43,40,92,81,68,30.26,30.14,17,8,17,0.00
2014-4-11,60,52,46,52,47,42,93,84,71,30.14,30.01,24,11,24,0.00
2014-4-12,58,50,44,51,46,41,94,86,72,30.18,30.04,23,11,23,0.00
2014-4-13,60,51,42,50,41,32,92,70,45,30.32,30.17,28,11,28,0.00
2014-4-14,64,51,41,47,41,36,96,72,50,30.17,30.00,24,8,24,0.00
2014-4-15,58,52,47,48,43,40,89,73,60,30.15,30.03,25,15,25,0.12
2014-4-16,53,50,48,50,48,45,96,93,87,30.04,29.87,26,16,26,0.45
2014-4-17,54,50,45,52,48,44,96,93,88,29.87,29.66,37,18,37,0.66
2014-4-18,57,50,43,46,42,40,94,76,61,30.08,29.83,30,15,30,0.01
2014-4-19,53,48,44,48,43,39,92,82,65,30.11,29.73,47,21,47,0.10
2014-4-20,58,51,46,47,44,39,89,75,54,30.27,30.10,31,16,31,0.00
2014-4-21,56,50,46,50,46,41,93,85,75,30.10,29.81,23,11,23,0.00
2014-4-22,56,50,46,46,43,39,95,79,56,29.84,29.78,30,16,30,0.10
2014-4-23,58,50,46,48,44,42,93,80,61,29.86,29.60,29,19,29,0.20
2014-4-24,55,50,47,50,47,43,96,88,73,29.87,29.53,26,13,26,0.92
2014-4-25,57,50,45,49,44,42,91,82,67,29.88,29.79,22,7,22,0.00
2014-4-26,58,50,44,46,43,39,91,78,51,29.80,29.58,41,14,41,0.09
2014-4-27,55,49,46,47,43,41,89,80,65,30.05,29.57,44,18,44,0.02
2014-4-28,60,50,45,50,44,41,90,78,61,30.36,30.06,22,11,22,0.00
2014-4-29,67,53,48,53,46,40,91,78,51,30.50,30.36,27,11,27,0.00
2014-4-30,62,54,46,55,49,44,94,86,67,30.41,30.16,17,7,17,0.00
2014-5-1,67,56,47,57,51,45,96,84,62,30.16,29.92,13,4,13,0.00
2014-5-2,66,58,51,56,52,47,96,81,67,29.99,29.85,22,11,22,0.26
2014-5-3,59,54,50,52,50,48,96,87,74,29.87,29.69,32,17,38,0.07
2014-5-4,58,52,50,53,50,48,94,90,80,29.82,29.68,26,15,34,0.60
2014-5-5,59,53,49,56,50,48,97,92,81,29.98,29.82,14,6,17,0.49
2014-5-6,60,54,50,53,49,47,93,85,72,30.02,29.96,14,9,18,0.00
2014-5-7,64,56,50,56,50,46,92,81,63,30.02,29.83,17,7,21,0.00
2014-5-8,61,54,52,53,51,48,96,88,68,29.84,29.59,23,12,30,0.83
2014-5-9,61,54,50,51,48,45,96,81,65,29.96,29.64,22,13,28,0.09
2014-5-10,60,54,50,53,49,46,91,83,70,30.24,29.96,14,7,18,0.00
2014-5-11,66,56,52,56,51,47,90,82,57,30.33,30.24,15,6,18,0.00
2014-5-12,71,59,50,61,54,48,93,84,62,30.36,30.28,13,5,16,0.00
2014-5-13,70,61,56,60,56,53,93,85,61,30.38,30.30,13,6,17,0.00
2014-5-14,71,60,52,62,55,50,95,84,55,30.31,30.10,11,4,14,0.00
2014-5-15,67,60,54,61,56,51,94,86,74,30.10,29.90,13,5,16,0.00
2014-5-16,68,60,55,57,53,50,88,78,63,30.07,29.94,25,10,28,0.00
2014-5-17,67,59,55,55,52,50,88,79,60,30.04,29.84,15,7,21,0.00
2014-5-18,67,58,51,57,53,48,93,83,65,29.85,29.79,14,5,18,0.00
2014-5-19,72,60,55,57,53,51,87,79,52,30.04,29.85,16,7,21,0.00
2014-5-20,69,60,55,60,54,50,92,81,62,30.10,30.04,20,7,23,0.00
2014-5-21,64,58,53,54,52,49,88,79,67,30.14,30.08,19,11,25,0.00
2014-5-22,66,59,55,59,55,51,93,87,76,30.12,29.98,19,6,24,0.00
2014-5-23,66,59,55,62,56,51,98,90,78,30.08,29.92,16,6,25,1.13
2014-5-24,65,59,54,56,52,50,92,80,67,30.16,30.08,16,9,20,0.00
2014-5-25,60,56,54,56,53,50,94,88,76,30.10,29.96,13,5,16,0.09
2014-5-26,65,57,53,57,53,49,97,85,63,30.15,29.96,18,9,23,0.17
2014-5-27,67,58,50,58,52,47,94,81,62,30.14,30.05,10,4,14,0.00
2014-5-28,66,57,52,55,51,47,92,79,61,30.08,30.02,16,8,21,0.00
2014-5-29,65,57,52,54,51,48,88,78,62,30.20,30.08,20,9,25,0.03
2014-5-30,72,57,46,60,52,44,96,84,63,30.17,29.98,15,4,17,0.00
2014-5-31,72,60,51,62,54,48,94,82,60,30.05,29.99,11,5,15,0.00
2014-6-1,70,61,53,60,55,51,92,81,65,30.08,29.95,18,8,22,0.00
2014-6-2,73,62,52,62,56,49,95,83,67,29.96,29.82,13,5,16,0.00
2014-6-3,68,60,54,58,55,51,93,82,69,30.06,29.84,15,10,21,0.00
2014-6-4,68,60,56,58,55,52,93,82,68,30.11,30.06,16,8,18,0.00
2014-6-5,74,62,52,60,54,48,93,78,54,30.14,30.06,20,6,24,0.00
2014-6-6,73,62,52,60,55,48,96,79,55,30.12,30.05,14,6,16,0.00
2014-6-7,73,63,56,62,57,53,92,80,61,30.16,30.08,19,10,23,0.00
2014-6-8,71,62,57,60,57,54,92,82,64,30.18,30.02,22,13,29,0.00
2014-6-9,74,63,56,57,53,50,88,71,46,30.14,30.04,17,7,23,0.00
2014-6-10,68,59,54,58,53,51,92,81,62,30.09,30.03,18,10,23,0.02
2014-6-11,74,61,52,62,55,49,94,81,63,30.07,29.81,13,4,16,0.00
2014-6-12,69,62,56,58,56,53,92,80,65,29.81,29.77,24,8,27,0.00
2014-6-13,68,59,54,60,54,50,96,84,67,30.04,29.79,28,12,30,0.33
2014-6-14,62,56,54,56,52,50,95,87,79,30.08,29.94,18,10,23,0.01
2014-6-15,65,58,54,56,52,48,91,81,64,29.94,29.78,18,9,22,0.01
2014-6-16,65,57,52,57,52,48,95,83,62,29.92,29.81,13,7,18,0.44
2014-6-17,68,60,54,58,54,50,90,79,64,30.08,29.92,20,11,28,0.01
2014-6-18,69,60,54,56,52,49,85,75,60,30.07,29.99,21,10,28,0.00
2014-6-19,69,62,56,59,56,52,92,81,67,29.99,29.90,15,5,18,0.10
2014-6-20,70,59,52,55,50,47,92,74,51,30.15,29.97,18,8,23,0.05
2014-6-21,76,60,50,57,51,46,90,72,38,30.13,30.02,11,4,15,0.00
2014-6-22,75,62,52,59,54,47,92,77,51,30.09,29.97,8,4,12,0.00
2014-6-23,69,61,56,58,55,52,92,80,63,30.05,29.95,14,4,17,0.01
2014-6-24,77,65,57,65,59,54,95,81,60,30.08,30.01,14,6,17,0.02
2014-6-25,76,64,54,64,58,51,96,82,60,30.01,29.75,10,4,14,0.00
2014-6-26,71,62,55,61,57,53,94,82,69,29.76,29.71,22,10,25,0.00
2014-6-27,67,61,58,61,57,53,93,86,78,29.83,29.69,19,8,30,0.17
2014-6-28,70,62,58,61,58,54,95,86,72,29.99,29.83,18,8,24,0.03
2014-6-29,71,62,56,60,56,53,92,81,62,30.21,29.99,18,7,22,0.00
2014-6-30,75,62,51,64,57,49,96,83,66,30.23,30.01,12,5,15,0.00
2014-7-1,78,64,54,65,58,52,97,83,58,30.01,29.71,16,4,18,0.00
2014-7-2,75,67,60,61,58,54,88,72,54,29.96,29.71,25,12,33,0.00
2014-7-3,71,63,57,58,54,51,86,73,57,30.08,29.95,20,11,27,0.00
2014-7-4,70,61,53,60,55,49,93,81,63,30.04,30.00,12,4,14,0.01
2014-7-5,67,62,57,61,58,54,95,88,77,30.15,30.02,10,3,14,0.02
2014-7-6,74,65,60,68,62,57,95,89,77,30.16,30.09,9,3,12,0.01
2014-7-7,77,66,59,68,62,57,97,88,71,30.13,30.01,13,5,17,0.00
2014-7-8,79,67,59,68,62,56,97,84,61,30.05,29.94,11,5,15,0.00
2014-7-9,76,67,59,64,60,56,93,78,56,30.00,29.91,19,6,23,0.00
2014-7-10,75,67,58,65,60,55,92,81,68,29.95,29.88,19,6,24,0.00
2014-7-11,78,68,56,68,61,53,95,81,57,29.96,29.89,13,4,17,0.00
2014-7-12,81,69,62,65,61,58,89,77,55,30.08,29.96,17,5,20,0.00
2014-7-13,78,66,56,68,60,53,94,79,60,30.11,29.97,17,5,21,0.00
2014-7-14,78,67,59,64,59,55,88,75,57,30.09,30.00,20,9,24,0.00
2014-7-15,77,65,57,63,58,54,93,79,59,30.09,29.95,16,6,21,0.00
2014-7-16,77,65,55,66,59,52,94,82,61,30.00,29.87,11,4,17,0.00
2014-7-17,73,64,57,62,58,54,92,81,65,29.99,29.89,18,9,24,0.00
2014-7-18,74,64,56,62,57,53,90,80,58,30.07,29.95,19,10,26,0.00
2014-7-19,72,64,59,64,59,57,95,85,71,29.99,29.88,22,13,28,0.05
2014-7-20,71,63,59,60,56,54,88,79,62,29.94,29.88,17,8,22,0.00
2014-7-21,74,64,57,59,56,53,90,75,54,30.02,29.93,18,7,23,0.00
2014-7-22,70,62,56,62,57,54,93,83,68,30.05,29.97,12,5,16,0.01
2014-7-23,64,59,55,64,57,52,98,94,87,30.01,29.90,18,7,23,0.78
2014-7-24,69,61,56,61,56,53,97,86,63,30.16,30.00,19,10,24,0.30
2014-7-25,71,62,55,61,56,52,94,82,66,30.16,30.06,13,5,16,0.00
2014-7-26,71,63,54,61,57,52,96,83,65,30.16,30.07,9,4,13,0.00
2014-7-27,74,64,53,66,58,51,96,84,67,30.19,30.06,11,3,14,0.00
2014-7-28,77,66,56,69,59,53,95,81,59,30.11,30.03,12,4,15,0.00
2014-7-29,79,66,55,65,59,52,94,77,54,30.11,30.02,18,5,21,0.00
2014-7-30,76,66,58,64,60,54,93,80,64,30.13,30.04,20,6,24,0.00
2014-7-31,78,67,59,67,60,52,90,78,67,30.10,29.99,11,4,14,0.00
2014-8-1,77,66,57,68,61,55,95,84,71,30.04,29.92,10,4,14,0.00
2014-8-2,79,69,58,70,63,55,96,82,65,29.98,29.91,17,5,22,0.00
2014-8-3,79,70,61,69,64,57,93,81,68,30.05,29.91,17,5,18,0.00
2014-8-4,79,70,61,70,64,59,96,83,60,29.97,29.88,21,6,24,0.00
2014-8-5,74,65,58,64,59,56,95,81,68,30.04,29.91,25,12,32,0.00
2014-8-6,76,66,59,63,60,56,95,80,60,30.11,30.02,20,9,25,0.00
2014-8-7,77,65,57,63,58,54,98,79,57,30.07,29.98,15,7,20,0.00
2014-8-8,75,65,58,61,57,55,92,77,57,30.09,29.99,16,9,21,0.00
2014-8-9,73,65,54,61,56,51,94,76,56,30.14,30.07,15,4,20,0.00
2014-8-10,76,65,55,67,59,52,95,82,67,30.13,29.95,10,3,13,0.00
2014-8-11,79,67,56,69,62,54,96,85,69,29.97,29.78,15,3,17,0.00
2014-8-12,77,66,63,67,61,57,91,84,66,29.87,29.77,17,4,21,0.01
2014-8-13,66,62,57,64,60,55,98,93,84,30.00,29.80,19,6,25,0.63
2014-8-14,68,61,57,64,59,55,98,93,84,30.01,29.93,18,3,21,0.10
2014-8-15,72,64,60,66,61,58,97,90,77,30.04,29.94,14,6,17,0.00
2014-8-16,72,63,59,66,60,56,96,90,81,30.11,30.04,8,2,8,0.00
2014-8-17,73,64,57,66,60,55,97,89,79,30.12,30.02,7,2,8,0.00
2014-8-18,72,64,56,66,61,54,97,90,76,30.02,29.80,12,3,15,0.00
2014-8-19,76,66,60,66,61,56,95,84,68,29.81,29.74,15,5,18,0.00
2014-8-20,71,65,59,62,58,55,89,79,68,29.96,29.77,16,9,22,0.00
2014-8-21,71,63,57,60,57,55,93,82,66,30.01,29.94,19,10,22,0.00
2014-8-22,70,62,52,65,58,50,96,87,80,30.06,29.96,11,4,13,0.00
2014-8-23,76,64,55,64,59,52,96,84,57,30.13,29.96,15,4,17,0.00
2014-8-24,71,62,55,65,58,52,96,87,75,29.97,29.90,14,4,17,0.00
2014-8-25,74,65,57,67,61,55,96,87,74,30.01,29.94,11,3,13,0.00
2014-8-26,80,68,58,68,63,57,97,85,64,30.04,29.94,8,3,11,0.00
2014-8-27,78,66,58,65,60,55,95,82,59,30.02,29.95,16,6,22,0.00
2014-8-28,76,66,60,64,60,58,95,83,64,30.07,29.96,19,11,24,0.00
2014-8-29,67,62,59,59,56,53,89,80,64,29.96,29.90,20,8,23,0.00
2014-8-30,70,62,58,62,58,56,92,85,74,29.92,29.85,14,5,17,0.00
2014-8-31,73,63,58,59,56,54,93,79,58,30.03,29.92,16,8,20,0.00
2014-9-1,74,64,58,61,57,54,92,78,58,30.05,29.94,14,6,18,0.00
2014-9-2,61,59,57,58,57,55,97,92,86,29.94,29.76,18,8,24,1.52
2014-9-3,67,61,54,62,57,51,97,87,68,30.09,29.83,22,4,27,0.00
2014-9-4,71,60,50,62,56,48,97,87,70,30.15,30.07,13,4,17,0.01
2014-9-5,70,60,52,64,57,50,98,89,76,30.17,30.03,14,3,18,0.01
2014-9-6,73,62,52,65,58,51,98,87,72,30.04,29.83,11,3,13,0.00
2014-9-7,76,63,52,62,56,51,97,79,54,29.87,29.75,12,3,15,0.01
2014-9-8,70,61,55,61,57,53,95,86,70,29.91,29.78,19,9,23,0.00
2014-9-9,69,61,55,60,56,53,95,84,71,30.10,29.91,14,5,17,0.00
2014-9-10,76,64,56,56,42,32,94,50,21,30.23,30.10,28,14,44,0.00
2014-9-11,76,61,50,54,44,33,88,55,29,30.30,30.13,26,11,38,0.00
2014-9-12,67,55,43,58,50,41,96,85,64,30.13,29.94,17,4,18,0.00
2014-9-13,69,57,46,61,53,44,98,86,71,29.97,29.84,11,3,13,0.01
2014-9-14,70,58,46,61,53,45,97,84,67,29.92,29.83,9,3,13,0.00
2014-9-15,73,60,48,62,54,47,97,84,59,29.87,29.76,8,3,13,0.01
2014-9-16,70,61,52,59,55,50,96,83,62,29.86,29.80,18,8,24,0.01
2014-9-17,69,62,59,62,58,56,94,87,71,29.84,29.68,14,5,17,0.02
2014-9-18,63,60,59,60,59,58,97,95,89,29.92,29.70,16,7,21,0.34
2014-9-19,69,63,58,65,61,56,98,92,83,30.11,29.91,15,3,17,0.28
2014-9-20,68,60,55,63,58,52,98,91,80,30.12,29.88,13,5,17,0.02
2014-9-21,55,53,51,54,52,50,97,95,92,29.88,29.83,9,1,13,0.00
2014-9-22,71,64,53,62,58,52,97,81,70,29.93,29.84,11,2,15,0.01
2014-9-23,67,62,59,64,60,57,96,93,83,29.88,29.61,26,8,33,0.48
2014-9-24,67,63,60,62,60,57,97,91,80,29.82,29.60,29,13,38,0.27
2014-9-25,71,62,57,63,58,54,94,85,69,29.84,29.80,22,6,28,0.00
2014-9-26,63,60,58,60,58,56,95,92,81,30.09,29.84,27,13,33,0.68
2014-9-27,61,57,50,58,55,48,98,93,84,30.15,30.08,14,3,17,0.00
2014-9-28,62,56,49,58,54,47,98,94,83,30.08,29.85,14,3,16,0.00
2014-9-29,61,57,55,59,56,53,100,94,87,29.91,29.82,22,10,29,0.12
2014-9-30,68,60,55,58,54,52,94,83,66,30.11,29.90,12,4,15,0.00
2014-10-1,64,58,52,57,54,49,94,86,74,30.19,30.11,13,4,15,0.00
2014-10-2,64,55,48,57,51,46,98,86,71,30.30,30.16,10,4,14,0.00
2014-10-3,64,56,48,57,52,46,96,86,68,30.30,30.11,10,3,15,0.00
2014-10-4,64,59,56,61,57,54,95,92,83,30.19,30.12,12,3,14,0.03
2014-10-5,66,60,55,62,57,53,98,92,84,30.14,30.05,12,4,14,0.00
2014-10-6,63,58,55,62,56,53,98,94,88,30.05,29.96,12,3,14,0.00
2014-10-7,61,58,54,60,56,53,97,95,88,29.96,29.89,14,2,16,0.00
2014-10-8,60,55,50,59,54,49,99,97,93,30.02,29.93,10,2,13,0.01
2014-10-9,64,56,51,60,54,50,98,93,82,30.05,29.98,11,2,13,0.00
2014-10-10,60,56,52,58,55,50,98,95,90,30.02,29.94,16,7,23,0.02
2014-10-11,66,58,55,60,56,52,97,91,76,30.12,29.94,19,8,24,0.27
2014-10-12,60,56,52,56,54,50,97,93,87,30.21,30.01,15,5,18,0.08
2014-10-13,65,57,53,56,53,49,95,87,57,30.01,29.58,31,11,43,0.83
2014-10-14,62,56,52,57,53,51,96,90,80,29.80,29.51,18,9,24,0.19
2014-10-15,56,54,52,55,53,51,97,94,92,29.93,29.47,20,11,25,0.34
2014-10-16,66,58,55,56,52,50,92,82,62,29.98,29.79,29,14,37,0.00
2014-10-17,61,56,52,57,52,49,94,87,78,29.79,29.64,29,16,41,0.19
2014-10-18,67,61,58,61,58,56,95,89,75,29.90,29.76,22,10,26,0.08
2014-10-19,72,63,55,60,57,52,94,82,63,29.77,29.58,33,14,40,0.22
2014-10-20,61,58,56,60,57,54,98,94,90,29.73,29.63,19,7,27,0.52
2014-10-21,62,58,55,56,54,51,95,85,71,29.84,29.59,48,21,59,0.03
2014-10-22,60,57,55,56,54,50,96,90,71,29.66,29.46,42,20,50,0.49
2014-10-23,59,54,51,54,50,47,94,88,75,29.97,29.59,26,14,34,0.15
2014-10-24,59,53,49,52,49,47,94,84,73,30.04,29.79,18,10,25,0.02
2014-10-25,58,52,49,54,50,47,97,92,86,29.79,29.19,33,13,41,0.92
2014-10-26,54,51,47,51,48,45,97,92,84,30.10,29.62,21,9,26,0.23
2014-10-27,56,50,46,52,47,44,95,90,80,30.13,29.88,22,8,28,0.04
2014-10-28,59,56,52,55,52,47,95,86,76,29.86,29.74,35,21,46,0.27
2014-10-29,61,56,52,56,54,50,96,91,81,30.10,29.84,21,12,26,0.07